Regional Weather Roundup
Issued by NWS

Home | Current Version | Previous Version | Graphics & Text | Print | Product List | Glossary On
Versions: 1 2 3 4 5 6 7 8 9 10 11 12 13 14 15 16 17 18 19 20 21 22 23 24 25 26 27 28 29 30 31 32 33 34 35 36 37 38 39 40 41 42 43 44 45 46 47 48 49 50
413
ASUS43 KDMX 191606
RWRIA

WEATHER ROUNDUP FOR IOWA
NATIONAL WEATHER SERVICE DES MOINES IA
1100 AM CDT TUE SEP 19 2017

NOTE: "FAIR" INDICATES FEW OR NO CLOUDS BELOW 12,000 FEET WITH NO
SIGNIFICANT WEATHER AND/OR OBSTRUCTIONS TO VISIBILITY.

* - THESE STATIONS ARE NOT NWS STATIONS...THUS NOT UNDER NWS
QUALITY CONTROL.  THEY ALSO DO NOT REPORT WEATHER SUCH
AS PRECIPITATION OR FOG.

IAZ001>003-012>014-020>022-031>034-043>046-191700-
   NORTHWEST IOWA

CITY           SKY/WX    TMP DP  RH WIND       PRES   REMARKS
CARROLL *      CLOUDY    70  66  88 SE15G23   29.85F
CHEROKEE *     CLOUDY    69  67  93 SE12G21   29.82F
DENISON *      PTSUNNY   70  66  88 SE15      29.84F
LE MARS *      CLOUDY    70  66  88 SE20      29.78F
ORANGE CITY *  CLOUDY    70  66  88 SE9G16    29.80F FOG
SHELDON *      CLOUDY    70  66  88 SE14G21   29.79F
SIOUX CITY     CLOUDY    70  68  93 SE12      29.78S FOG
SPENCER        CLOUDY    69  65  86 SE18      29.83F
STORM LAKE *   CLOUDY    68  64  88 SE14G21   29.84F
$$

IAZ055>058-069>071-079>083-090>094-191700-
   SOUTHWEST IOWA

CITY           SKY/WX    TMP DP  RH WIND       PRES   REMARKS
ATLANTIC *     PTSUNNY   73  68  83 S13G20    29.84F
AUDUBON *      PTSUNNY   72  66  83 SE10      29.86F
CLARINDA *     MOSUNNY   75  70  83 VRB7G15   29.88F
COUNCIL BLFS * SUNNY     75  72  88 S15       29.82F
CRESTON *      CLOUDY    70 -38   1 S13       29.90F
HARLAN  *      PTSUNNY   73  70  88 SE13      29.86F
LAMONI         CLOUDY    69  68  96 SE10      29.91S
RED OAK *      PTSUNNY   75  70  83 SE9G20    29.84F
SHENANDOAH *   SUNNY     77  68  73 SE13      29.84F
$$

IAZ047>049-059>061-072>074-084-191700-
   CENTRAL IOWA

CITY           SKY/WX    TMP DP  RH WIND       PRES   REMARKS
AMES           CLOUDY    68  68 100 SE13      29.91S FOG
ANKENY *       CLOUDY    70  66  88 SE12      29.91F
BOONE *        CLOUDY    68  66  94 SE15      29.89F
CHARITON *     PTSUNNY   70  68  94 SE13      29.92S
DES MOINES     CLOUDY    69  66  90 SE12      29.90S
GRINNELL*      PTSUNNY   68  67  97 E10       29.94F
KNOXVILLE *    MOSUNNY   70  66  88 SE12      29.91S
MARSHALLTOWN   MOSUNNY   72  67  84 SE15      29.91F
NEWTON *       PTSUNNY   72  68  88 SE15      29.92S
PELLA *        CLOUDY    69  68  97 SE9       29.93F
PERRY *        CLOUDY    69  67  93 SE10      29.89S
$$

IAZ004>006-015-016-023>025-035-036-191700-
   NORTH CENTRAL IOWA

CITY           SKY/WX    TMP DP  RH WIND       PRES   REMARKS
ALGONA *       PTSUNNY   70  68  94 SE14G21   29.87F
CLARION *      CLOUDY    70  70 100 SE16G25   29.89F
ESTHERVILLE    CLOUDY    67  65  93 SE16      29.85F
FORT DODGE *   CLOUDY    70  65  84 SE10      29.89S
MASON CITY     CLOUDY    68  64  87 SE16      29.92F
FOREST CITY *  CLOUDY    68  68 100 SE14      29.91S
IOWA FALLS *   PTSUNNY   71  67  87 SE12      29.92F
$$

IAZ007>011-017>019-026>030-037>042-050>054-066-191700-
   NORTHEAST IOWA

CITY           SKY/WX    TMP DP  RH WIND       PRES   REMARKS
CEDAR RAPIDS   CLOUDY    65  65 100 SE8       29.95S FOG
CHARLES CITY * MOSUNNY   70  66  88 SE13      29.93F
CLINTON *      CLOUDY    64  63  96 E7        29.98S FOG
DECORAH *      CLOUDY    63  61  94 VRB5      29.96S
DUBUQUE        MOSUNNY   66  63  90 E3        29.98S
MONTICELLO *   CLOUDY    64  64 100 E6        29.96S FOG
OELWEIN *      CLOUDY    64  64 100 SE9       29.97R FOG
WATERLOO       PTSUNNY   68  63  84 SE10      29.93S
$$

IAZ064-065-067-068-078-191700-
   EAST CENTRAL IOWA

CITY           SKY/WX    TMP DP  RH WIND       PRES   REMARKS
DAVENPORT      SUNNY     70  63  78 E7        29.99R
IOWA CITY      CLOUDY    68  66  93 SE5       29.97R FOG
MT. PLEASANT * CLOUDY    67  67 100 S6        29.97R FOG
MUSCATINE *    CLOUDY    68  66  94 SE5       29.96S
QUAD CITIES    SUNNY     71  64  78 S5        29.96S HAZE
$$

IAZ062-063-075>077-085>089-095>099-191700-
   SOUTHEAST IOWA

CITY           SKY/WX    TMP DP  RH WIND       PRES   REMARKS
BURLINGTON     CLOUDY    66  66 100 SE7       29.96S
FAIRFIELD *    CLOUDY    70  70 100 SE9       29.95F FOG
FORT MADISON * CLOUDY    68  68 100 SE5       29.98R FOG
KEOKUK *       CLOUDY    70  68  94 VRB7      29.96S
OSKALOOSA *    CLOUDY    66  65  99 SE9       29.94F
CENTERVILLE *    N/A     72  72 100 SE7       29.95S
OTTUMWA        PTSUNNY   70  67  90 SE9       29.94F
WASHINGTON *   CLOUDY    68  66  94 SE6       29.97R FOG
$$

ABBREVIATIONS USED IN REMARKS
   TC - TEMPERATURES IN CELSIUS
  WCI - WIND CHILL INDEX
   HX - HEAT INDEX
  VSB - VISIBILITY
$$





USA.gov is the U.S. government's official web portal to all federal, state and local government web resources and services.